Powrót do katalogu

GEESAT 6-03

AktywnyŁącznośćLEO
NORAD 65715·PAYLOAD·🇨🇳 China

Wystrzelony Sep 24, 2025 z Yellow Sea Launch Area

Loading…

Następne Przeloty (najbliższe 24 godziny)

TLE

ŚwieżeSource: Space-Track

Epoka: Sep 14, 2026, 11:18 UTC

1 65715U 25214D   26257.47149936  .00001172  00000-0  16802-3 0  9994
2 65715  49.9815 254.2558 0012739 208.7074 151.3164 14.83554230 52769

Śledź GEESAT 6-03 w czasie rzeczywistym z AllMySat

Download on the App Store